GFSNGP_con_3kmhel_009.txt.gz
Helicity
72 79 61 51 66 81 97 112 160 77 149 182 302 412 410 399 360 315 260 230 225 214 104 105 154 118 112 84 74 67 91 57 48 45 50 78 101 118 137 128 126 109 135 136
78 104 91 53 54 47 64 103 123 132 134 143 294 372 374 305 286 269 255 231 173 107 127 134 87 93 94 71 77 87 73 58 51 68 81 99 106 104 98 112 105 117 100 93
70 100 96 55 72 114 113 140 169 196 141 263 266 292 284 244 239 221 180 139 113 92 53 64 90 89 85 93 116 112 96 78 84 102 103 108 110 105 109 114 145 84 115 120
96 135 120 73 100 84 130 135 151 170 213 246 237 190 215 207 212 178 141 106 57 34 54 77 103 117 119 139 144 147 119 118 126 125 130 117 115 115 120 113 88 80 137 163
146 133 135 122 143 210 179 113 135 174 184 174 229 281 195 157 168 138 98 72 93 106 101 126 138 138 159 169 168 160 164 158 150 135 141 130 117 109 119 110 107 144 166 160
180 168 113 82 136 178 188 154 151 192 186 217 303 277 177 173 217 146 123 202 152 147 182 192 168 172 176 174 190 187 179 163 143 138 134 116 104 92 112 132 148 160 163 142
170 153 129 81 189 259 250 100 136 106 163 281 275 219 198 259 206 217 285 257 229 235 204 161 170 211 192 182 194 194 175 149 152 125 119 107 111 108 107 134 169 139 113 115
211 210 156 156 309 207 122 182 102 162 212 242 205 222 240 239 331 337 304 263 243 223 196 188 190 186 184 198 190 167 155 161 155 131 130 122 112 102 117 135 145 132 119 95
143 119 134 66 125 140 176 184 170 225 259 226 258 261 264 340 361 323 264 244 216 197 179 148 159 172 192 184 167 152 153 169 168 153 131 112 109 119 126 130 121 99 85 86
207 132 108 97 113 153 182 197 230 252 279 298 289 300 369 361 311 260 218 219 178 162 139 141 155 180 184 161 136 132 130 144 166 149 109 101 104 120 127 119 102 89 87 77
145 113 130 129 147 170 217 251 288 305 273 281 339 342 333 312 249 215 191 162 142 128 139 143 158 165 144 130 118 125 124 126 135 135 110 98 86 92 88 83 99 96 85 91
178 140 165 134 134 188 265 272 270 351 365 337 362 341 273 227 193 168 145 139 140 145 145 154 163 156 132 121 113 123 111 98 118 125 119 104 90 81 56 53 66 68 77 102
139 115 161 160 131 204 266 262 312 338 325 403 350 266 252 169 149 125 128 145 162 142 137 151 153 138 126 119 108 116 111 101 103 106 103 100 106 99 78 68 82 69 70 73
150 218 182 188 151 239 325 350 398 462 521 394 315 252 96 119 120 115 153 153 139 138 145 139 136 123 118 113 94 113 114 95 102 110 106 106 103 90 83 83 74 66 63 69
140 185 176 188 282 399 445 524 625 661 399 262 184 45 90 106 122 151 148 129 140 133 119 123 120 94 123 106 97 105 119 102 97 91 106 102 99 90 93 86 77 66 60 67
144 213 256 317 399 475 610 648 679 258 174 118 53 75 101 148 156 124 110 127 133 119 112 116 87 102 132 105 93 99 122 106 101 111 110 105 103 98 102 92 74 60 57 69
226 284 407 499 566 675 722 570 141 157 57 36 59 107 152 161 119 106 109 105 115 97 89 82 92 98 105 99 93 110 132 120 121 128 116 111 104 100 93 89 79 58 54 71
380 464 509 541 620 458 157 120 65 34 45 92 124 146 133 117 97 86 95 102 100 87 54 94 110 102 92 91 91 114 142 140 136 116 105 109 118 104 95 87 81 52 53 63
542 580 536 464 265 135 121 62 27 47 77 109 116 86 91 92 103 106 131 117 112 117 99 103 97 92 103 99 91 117 109 132 139 101 100 92 96 98 91 84 82 62 63 65
249 198 140 97 128 67 1 14 49 91 101 89 99 108 101 93 119 133 152 136 111 121 112 94 105 110 106 95 96 112 113 116 124 95 93 89 100 84 79 82 83 81 79 78
86 48 31 11 8 27 50 53 50 56 76 89 89 90 94 103 134 145 143 145 123 98 96 94 110 117 111 102 86 99 108 114 124 111 104 99 103 109 101 100 101 106 106 113
19 20 25 13 -1 -2 10 45 58 62 69 83 95 106 114 118 146 133 160 148 133 89 107 119 111 91 94 83 81 78 91 116 125 132 128 118 116 111 115 126 120 117 129 155
31 12 3 17 31 45 67 68 66 74 76 95 113 128 149 149 152 165 149 125 130 109 107 108 97 84 69 84 80 72 74 89 119 145 148 154 168 162 139 135 140 132 143 187
58 77 68 65 74 71 69 80 87 89 99 104 114 129 152 161 168 168 145 134 115 108 104 90 79 75 67 77 64 56 71 86 100 126 139 144 150 152 166 169 174 168 151 146
58 61 70 73 72 71 77 79 81 90 107 121 127 127 127 129 153 159 156 142 117 101 110 73 80 77 71 66 60 73 67 70 89 105 116 127 134 131 133 150 159 187 183 157
101 94 87 83 75 83 87 96 103 112 132 157 177 172 164 151 159 163 159 154 128 107 107 96 110 94 82 52 45 49 56 62 64 82 94 112 121 111 103 108 139 188 176 167
119 106 97 85 81 87 97 106 115 126 147 169 175 149 134 123 121 124 132 141 156 145 127 112 78 70 65 63 66 70 68 62 66 71 70 72 68 95 102 105 118 144 210 180

GFSNGP_con_3kmhel_012.txt.gz
Helicity
72 77 66 53 55 85 95 105 103 75 116 83 146 213 284 341 385 381 318 283 250 237 221 158 64 87 100 102 88 100 96 93 80 67 62 79 95 104 116 126 125 124 113 133
68 95 102 62 50 76 108 121 94 101 90 117 146 304 330 362 347 298 265 243 232 234 138 67 67 103 102 85 95 123 112 103 109 111 107 113 128 129 134 124 116 108 148 108
57 104 106 53 75 140 153 158 169 158 123 154 151 207 270 306 278 220 208 202 191 158 71 94 88 104 99 110 124 137 150 148 150 142 143 139 141 133 133 125 113 89 90 102
98 141 122 98 112 107 131 111 167 161 126 144 151 216 208 196 201 180 181 176 141 126 108 96 117 139 140 138 142 171 175 170 168 173 165 155 143 126 119 121 110 113 133 156
159 142 144 134 116 132 178 111 200 176 168 195 201 241 137 151 177 180 163 141 176 142 124 137 140 170 160 149 175 189 170 187 184 180 169 152 138 116 105 104 118 132 141 160
179 183 151 94 102 127 177 185 164 213 176 177 229 246 128 191 224 187 190 244 193 179 195 185 195 190 211 195 176 169 184 183 178 178 169 158 135 114 119 113 116 143 156 152
205 201 174 83 141 190 228 93 86 100 140 208 195 176 165 184 248 257 281 307 275 250 230 200 218 213 177 167 171 174 184 180 171 171 183 171 147 124 103 117 154 154 157 129
185 223 170 138 238 174 93 102 62 70 137 154 214 270 255 253 292 319 329 322 283 251 205 181 173 178 168 162 160 177 174 162 152 164 195 175 135 105 108 133 146 142 145 128
145 141 107 21 60 80 137 130 126 161 165 176 305 298 285 295 325 339 308 297 230 185 165 155 157 157 164 153 172 165 163 148 132 136 159 150 109 87 119 132 132 117 118 114
190 107 94 92 83 97 127 140 170 172 217 300 314 339 374 378 365 383 283 226 142 158 152 142 134 130 154 167 168 161 153 134 121 134 144 142 118 100 109 114 116 111 120 111
138 89 109 90 128 119 136 165 177 185 228 298 369 382 363 382 381 335 201 134 144 149 138 119 120 135 165 166 171 154 144 127 116 120 136 136 119 104 99 100 112 113 103 110
154 139 172 114 93 89 122 128 166 253 314 353 376 374 426 432 349 231 77 107 138 130 124 114 133 147 143 157 165 140 122 127 115 114 133 144 129 104 87 76 55 62 80 117
148 112 108 104 106 113 130 166 219 282 334 413 435 452 417 402 157 45 69 111 117 115 114 129 129 118 116 138 140 119 119 109 110 117 128 139 140 124 116 93 84 72 69 84
121 146 122 147 127 117 164 244 352 422 475 570 659 863 626 151 19 39 93 100 106 110 120 111 101 105 118 124 125 112 110 101 116 115 126 133 134 125 134 131 123 86 74 73
79 92 127 152 234 267 315 400 497 606 725 758 494 120 89 20 26 60 76 98 108 108 100 97 98 98 86 115 119 110 111 117 119 125 127 116 136 126 123 123 140 106 80 67
102 126 187 236 281 334 424 509 622 592 493 455 234 85 27 32 48 68 95 113 123 108 96 92 80 61 67 82 96 109 105 101 111 127 137 138 123 122 116 119 122 104 82 75
141 197 282 343 370 438 451 431 359 366 380 193 50 17 31 56 64 72 98 107 103 77 80 88 82 72 81 100 106 113 110 133 128 154 155 152 134 126 123 119 102 96 82 71
338 422 411 416 449 446 426 366 348 212 134 68 58 77 90 85 77 83 102 96 91 88 86 95 90 81 89 100 110 116 109 139 121 125 159 170 126 133 127 129 123 111 88 61
375 408 424 404 353 308 306 252 131 77 42 51 71 46 49 60 84 84 96 85 93 122 120 95 83 79 86 105 105 112 108 114 121 138 131 150 117 110 120 116 113 107 113 91
298 287 263 256 206 142 79 25 24 32 45 57 51 41 54 58 67 77 109 118 112 156 134 105 108 118 119 116 111 115 101 104 115 137 125 133 130 110 117 114 111 111 109 117
81 42 23 7 6 7 8 22 33 37 38 44 54 49 48 47 71 95 129 131 130 140 140 106 109 120 124 117 112 105 97 95 111 122 117 134 135 134 137 139 137 134 111 126
58 36 17 10 16 20 31 45 43 34 31 28 30 43 65 80 111 126 140 164 154 128 141 117 109 109 110 93 99 98 87 77 88 103 121 131 152 158 162 162 159 156 157 158
15 16 21 9 5 10 20 17 8 18 33 52 67 83 109 128 153 160 145 145 151 126 133 119 91 99 83 87 91 87 85 65 59 57 84 116 130 136 142 146 145 155 165 171
22 42 44 46 47 70 88 84 78 76 71 81 92 109 136 151 166 176 174 144 142 137 144 135 113 92 80 91 99 96 78 68 58 54 69 79 106 118 116 120 118 109 112 125
91 98 96 102 89 75 71 70 69 77 90 101 114 130 155 180 189 159 162 145 129 144 161 124 172 172 121 102 100 94 79 62 57 54 59 50 52 65 98 133 149 138 109 97
117 105 91 88 73 64 62 59 69 80 90 98 112 124 138 153 163 149 139 131 128 137 204 233 165 119 86 73 67 73 74 71 63 56 52 47 43 49 58 73 84 118 147 115
101 103 86 78 65 68 81 85 86 95 103 112 122 123 125 121 133 140 130 132 140 210 232 199 151 110 83 68 67 70 72 72 62 53 43 37 42 46 54 78 99 104 87 127

GFSNGP_con_3kmhel_015.txt.gz
Helicity
69 68 50 54 55 75 85 121 110 84 100 74 59 86 109 172 278 333 333 323 285 254 241 223 171 85 62 110 103 103 109 117 116 141 128 115 115 112 110 120 125 126 109 116
50 79 80 42 42 78 85 116 93 116 60 96 134 156 191 206 278 301 300 252 225 201 209 128 95 95 109 94 104 127 119 119 144 163 153 147 144 131 126 125 118 125 118 103
67 106 107 35 59 144 182 181 168 158 134 168 106 117 129 212 235 250 235 209 195 168 135 114 109 135 100 118 135 133 130 138 159 174 176 166 159 129 121 121 112 108 120 124
103 134 137 104 116 119 103 120 151 164 160 126 127 131 121 106 180 189 194 200 174 164 146 140 167 149 147 148 145 135 137 148 166 179 176 182 160 133 131 130 120 115 121 126
119 121 119 112 112 99 108 102 110 141 160 182 180 168 89 55 104 135 172 177 184 182 184 218 193 179 157 164 160 153 153 149 160 180 187 180 160 147 141 144 121 106 108 122
143 130 99 91 107 106 108 129 96 100 184 166 167 192 95 69 114 167 227 235 248 248 255 252 229 175 160 152 146 161 167 160 170 177 175 163 161 149 148 117 92 108 132 140
169 146 126 69 139 132 186 91 90 68 79 119 140 118 120 130 164 233 285 310 345 325 249 259 187 139 143 143 144 156 144 144 149 158 146 133 147 143 124 95 98 127 142 141
145 167 108 83 108 125 90 72 74 62 87 126 130 186 191 200 247 353 398 376 368 341 341 181 128 129 131 121 150 136 138 139 169 158 131 129 131 133 118 94 105 124 133 124
112 119 99 26 56 95 122 107 117 141 106 124 187 220 271 299 350 387 410 421 320 296 245 137 111 117 109 132 136 134 139 160 175 142 116 116 116 120 117 112 105 117 116 110
135 80 63 54 54 77 123 150 154 136 124 162 192 269 331 375 405 447 451 466 335 187 144 98 102 117 107 121 126 142 159 159 134 135 116 99 119 119 117 110 106 103 99 103
123 75 99 85 96 77 78 94 104 118 140 150 205 289 402 465 503 540 562 402 172 167 94 90 96 97 107 112 131 153 148 113 107 115 100 90 101 110 123 111 98 94 87 92
142 122 135 110 75 64 79 93 95 115 160 199 220 337 438 557 639 710 295 159 119 89 82 79 86 85 90 114 143 142 114 102 110 101 99 93 95 99 111 88 91 91 82 94
120 116 67 77 68 89 99 116 134 164 200 312 370 464 630 701 542 235 140 110 66 60 72 78 67 64 91 115 122 109 98 83 100 92 89 92 106 114 100 101 110 84 95 84
75 84 87 101 111 139 177 228 287 330 365 441 568 666 624 616 489 161 31 36 55 51 60 61 49 68 76 77 92 77 80 88 97 96 93 98 112 113 104 106 104 90 107 93
145 101 118 161 186 195 209 259 368 439 509 660 534 516 506 309 88 31 20 37 51 55 47 40 60 66 83 87 71 65 83 98 97 97 98 105 114 114 103 106 104 95 91 88
95 162 219 244 222 230 266 354 425 420 444 334 320 292 170 100 62 32 41 57 79 54 53 71 72 67 85 75 77 91 97 96 76 106 108 97 119 128 118 100 83 81 82 78
112 150 189 209 240 277 326 320 320 301 278 248 265 175 38 20 23 29 49 76 65 46 73 86 75 69 73 70 64 81 99 90 77 107 118 89 94 128 124 106 91 84 80 91
179 190 228 247 259 272 256 216 206 237 207 110 43 14 8 17 26 46 58 67 65 65 72 93 102 96 91 78 76 107 123 101 83 85 94 96 94 84 117 114 91 89 89 83
196 184 151 141 125 132 149 124 96 55 6 -20 -8 11 43 57 56 58 66 64 61 76 95 157 149 130 112 95 105 126 120 107 95 82 80 83 75 69 92 118 101 99 98 90
70 67 77 79 68 43 6 -14 14 22 35 44 46 47 49 59 62 63 72 71 69 111 142 144 153 135 112 93 102 113 114 103 89 79 70 80 72 70 83 104 108 107 110 110
119 88 79 79 65 47 37 36 43 53 49 54 55 56 61 57 71 81 95 105 115 146 137 142 148 130 101 94 101 106 113 100 86 83 72 69 59 54 69 97 125 138 137 144
94 86 69 67 77 75 63 48 49 49 50 51 52 63 78 78 95 107 121 127 134 142 143 146 137 109 102 94 113 100 96 93 97 80 69 51 39 42 53 72 87 104 111 109
99 86 89 92 74 51 44 57 60 49 52 61 68 79 89 98 117 130 135 139 140 145 156 151 129 123 101 129 109 75 72 88 83 67 74 63 42 48 58 63 73 82 90 101
102 103 78 65 60 76 91 81 65 60 50 64 83 97 107 121 126 143 155 151 144 147 149 131 131 151 187 194 138 100 95 87 88 79 66 62 53 52 60 60 51 51 69 104
121 120 114 106 97 70 61 44 21 30 54 78 88 91 101 119 145 142 139 142 128 130 129 134 204 253 230 158 117 97 88 83 82 78 78 72 59 47 48 46 42 41 52 64
143 122 105 99 81 60 39 41 49 53 67 68 91 105 118 123 128 128 128 127 140 133 166 202 203 209 173 139 118 99 81 80 79 79 75 67 60 40 36 42 45 48 62 85
128 121 92 73 68 55 51 51 55 64 86 102 109 112 113 130 146 150 145 147 153 235 250 230 210 186 145 130 118 108 90 81 77 65 59 60 52 44 45 50 59 75 83 104

GFSNGP_con_3kmhel_018.txt.gz
Helicity
33 49 49 47 12 43 50 34 66 36 37 55 80 79 71 108 131 161 213 266 268 284 307 274 267 245 253 79 133 114 119 95 98 114 119 122 118 122 137 117 103 110 127 131
29 52 65 51 3 28 39 36 47 28 24 29 68 87 103 118 151 146 189 219 239 232 234 232 219 240 108 140 120 150 118 98 111 128 134 131 136 146 137 123 126 133 121 91
40 79 78 49 27 66 86 102 85 81 56 118 106 88 84 96 122 123 149 175 208 215 199 215 213 149 139 149 188 155 120 114 128 145 139 134 141 135 144 145 133 135 120 93
67 64 80 105 89 93 52 33 57 49 79 103 128 142 121 91 91 80 92 147 183 201 225 207 237 212 173 177 162 140 126 136 146 132 127 130 137 141 143 148 138 138 126 107
87 84 92 61 98 89 85 87 93 56 61 116 123 125 84 71 47 45 78 135 192 231 275 317 267 270 258 156 151 130 130 146 135 130 126 127 137 145 132 141 123 123 114 102
121 74 49 116 122 107 84 73 126 93 82 87 97 121 119 96 48 63 110 167 257 317 329 318 355 444 176 206 179 146 145 130 117 114 122 132 133 124 130 123 116 111 103 110
123 113 98 97 109 84 116 178 118 57 69 74 85 82 154 117 98 104 153 223 348 362 379 368 320 222 204 171 156 132 109 103 110 122 144 131 116 128 116 108 123 114 109 111
132 137 104 92 72 105 138 97 97 104 106 104 93 153 146 161 178 186 240 342 407 497 500 361 453 202 150 119 115 87 93 105 115 135 137 124 125 123 100 102 118 112 109 102
91 129 108 42 62 108 115 111 101 107 124 120 118 117 141 183 254 289 331 433 504 550 588 329 166 183 118 98 71 74 84 91 104 117 116 124 122 104 103 111 111 109 101 83
99 70 39 40 63 74 75 71 73 70 72 88 88 106 146 211 298 341 395 476 613 775 509 226 179 136 65 59 65 79 75 77 99 112 130 117 116 103 99 115 117 107 81 68
75 47 76 77 89 86 85 79 73 82 99 115 125 128 169 209 309 464 605 635 642 492 336 246 96 66 49 57 75 68 72 74 96 108 99 99 94 92 80 102 119 95 79 81
116 140 108 85 95 69 73 103 117 123 137 163 155 204 254 346 411 500 678 616 575 273 148 77 60 40 53 67 68 64 66 79 101 98 93 99 88 88 115 88 127 98 81 88
106 73 56 61 100 135 156 165 177 209 240 274 332 343 352 419 571 643 523 388 260 137 58 37 29 49 46 61 63 63 68 77 89 92 94 82 84 94 89 121 99 88 90 87
149 119 120 179 151 158 176 202 242 275 283 318 353 437 497 548 533 544 385 149 29 8 23 38 38 42 54 63 65 60 66 93 87 87 93 95 86 90 99 104 97 84 89 89
150 126 141 165 181 195 205 202 230 260 312 348 332 325 397 458 261 135 -94 -105 -29 3 28 45 57 61 72 80 67 71 87 85 101 114 108 101 100 99 92 97 96 75 60 82
121 123 132 170 192 189 226 243 270 248 240 224 188 142 148 83 28 -9 -30 -11 8 17 55 94 92 68 74 75 80 93 95 102 93 86 91 103 103 101 89 108 113 88 70 55
90 118 127 141 144 127 152 151 148 149 144 127 88 71 35 0 -27 -26 9 46 64 73 87 104 87 89 107 109 119 114 108 109 111 101 89 78 90 82 81 91 96 105 74 84
159 144 104 86 82 98 104 125 112 97 94 80 63 38 38 35 32 48 63 70 77 80 83 108 129 127 144 143 134 134 133 140 131 122 119 100 81 76 79 65 72 87 91 76
93 102 114 128 106 96 92 100 97 71 62 72 69 71 61 54 57 65 73 76 73 87 86 138 168 198 187 179 162 142 141 135 118 114 113 98 95 92 81 73 66 77 94 83
110 117 123 127 123 122 130 122 104 100 77 64 58 61 68 68 74 76 79 86 81 119 134 135 164 178 179 164 149 124 121 124 114 125 122 99 93 91 76 54 56 61 81 97
140 136 130 130 128 115 101 100 101 98 77 66 71 68 62 65 74 83 88 103 84 128 129 141 147 147 149 137 128 120 134 108 100 99 99 92 81 75 72 64 54 51 65 82
121 127 127 126 130 145 130 111 100 85 84 75 74 77 77 79 84 89 103 115 114 139 147 155 153 131 123 165 159 147 101 89 89 85 104 89 81 83 75 68 46 48 60 63
149 147 151 158 149 126 109 107 86 75 68 70 72 71 75 80 87 97 109 141 156 153 159 161 152 138 128 147 154 161 133 110 93 90 91 79 83 83 66 63 55 42 44 43
165 160 149 131 124 121 119 100 72 58 46 28 53 64 71 82 113 125 152 131 126 143 156 148 132 117 109 121 165 195 181 118 85 83 80 79 87 86 82 74 66 54 49 44
150 139 135 125 118 108 94 76 36 40 59 71 83 99 129 138 143 138 153 150 148 154 140 121 222 206 162 175 184 197 161 149 118 84 76 73 75 77 80 79 70 55 45 38
140 142 129 132 116 91 66 48 46 58 57 59 65 82 91 96 114 125 122 134 153 181 155 173 168 162 146 134 148 144 126 132 120 97 76 71 70 66 70 79 76 57 45 40
158 148 129 112 96 75 65 60 52 54 67 91 88 97 108 103 108 116 112 106 104 104 109 119 118 111 95 104 116 115 121 121 116 102 81 69 64 60 63 69 73 51 44 42

GFSNGP_con_3kmhel_024.txt.gz
Helicity
52 35 29 73 82 17 -0 26 -26 16 -4 -4 38 70 59 115 97 109 49 109 138 212 336 403 474 427 384 426 462 453 263 193 172 199 368 249 205 148 151 169 160 121 131 117
44 43 53 17 47 34 30 26 -10 -4 8 14 59 114 139 169 151 161 122 73 135 197 271 373 396 370 398 466 503 354 217 221 282 322 198 285 172 153 121 103 128 164 170 134
46 78 76 18 4 -8 -3 9 23 45 42 60 75 61 161 155 108 133 117 121 114 172 182 226 272 352 470 496 476 274 340 372 278 236 456 153 113 113 115 113 149 169 153 160
64 55 18 -4 77 75 72 66 56 70 90 130 160 185 143 77 81 98 136 131 116 116 126 183 247 343 395 394 418 349 430 446 454 421 233 150 114 95 84 115 142 145 163 147
63 42 37 37 63 83 73 85 198 254 252 252 216 128 121 119 193 201 201 136 107 117 154 197 208 304 451 435 459 504 578 711 416 240 193 115 115 95 116 119 121 142 144 145
64 59 24 73 109 93 77 83 219 213 168 125 101 102 151 251 203 119 112 106 104 128 147 198 339 454 593 695 765 859 888 666 502 182 104 94 81 104 99 105 120 144 200 225
79 53 53 104 124 78 95 183 157 131 108 94 116 151 169 143 108 140 145 148 172 348 508 611 753 795 904 948 1151 1269 623 302 214 94 80 77 83 84 105 119 118 129 154 170
100 82 36 121 109 132 182 117 128 118 130 123 117 93 91 78 113 125 104 259 458 661 847 942 919 934 949 1000 624 390 338 152 59 56 74 76 119 121 116 103 106 121 181 200
79 81 115 103 174 130 160 132 114 106 114 122 110 96 92 120 170 266 334 544 649 706 746 764 707 591 498 451 541 211 36 35 20 14 55 103 112 114 111 101 114 130 157 195
136 69 91 106 140 115 179 215 144 116 103 134 142 137 113 155 300 438 595 528 514 509 491 492 565 601 330 145 58 45 7 -25 1 62 87 102 103 109 118 143 117 127 133 170
94 64 108 174 336 370 258 193 196 161 235 271 179 146 292 449 537 535 529 444 357 346 303 250 162 96 51 32 -6 -29 -16 24 62 88 82 85 99 103 160 152 132 113 102 134
121 250 194 276 306 253 295 239 225 250 294 281 334 378 394 428 391 325 301 226 154 126 91 63 40 57 31 38 37 43 54 78 94 99 99 105 104 128 130 111 118 122 120 128
237 244 223 255 247 223 257 285 263 264 259 228 249 233 229 213 195 184 134 122 100 94 69 74 81 68 69 62 67 90 93 92 109 106 116 121 149 137 124 106 81 106 121 112
178 160 290 266 241 266 236 186 227 198 191 183 184 183 174 163 153 144 118 100 92 106 110 99 85 60 64 73 84 106 115 94 137 142 157 160 152 148 139 137 138 109 108 121
193 259 332 409 383 281 237 218 195 178 167 164 143 139 135 135 121 105 97 94 105 86 64 59 75 71 71 90 124 151 171 174 164 177 193 164 164 167 161 146 138 130 107 123
237 360 367 276 277 248 230 213 210 172 157 194 188 177 145 123 118 119 120 123 100 94 85 84 81 86 83 84 96 126 156 176 192 221 232 238 197 167 165 178 161 127 118 120
340 275 233 255 227 216 269 256 212 202 173 165 145 125 130 127 128 134 114 95 88 81 78 81 96 81 108 102 104 137 173 200 235 274 256 217 183 166 154 156 185 169 104 107
246 206 200 214 233 247 203 204 200 178 162 139 124 125 132 137 128 113 100 86 80 81 104 111 110 113 107 112 138 165 186 199 226 241 223 200 181 155 144 132 133 130 117 89
267 329 297 244 207 198 194 182 151 133 138 134 139 144 127 117 101 93 83 77 79 95 129 100 111 113 125 142 160 183 197 194 190 199 208 201 177 138 122 96 96 102 94 88
265 250 223 218 218 200 183 162 133 152 156 149 130 120 102 81 67 61 49 55 68 114 121 112 104 128 160 182 205 178 174 185 150 160 241 231 166 122 119 83 79 93 93 88
199 173 175 185 190 180 168 145 141 155 145 107 100 90 81 60 39 36 50 56 137 127 121 99 137 172 137 137 121 118 128 134 111 65 23 128 151 143 161 106 87 96 130 132
150 158 157 141 140 147 146 147 140 120 108 95 80 77 74 82 68 80 83 150 104 151 113 142 140 114 97 119 131 154 172 164 141 99 82 115 242 260 146 129 114 98 80 75
173 146 132 124 124 136 125 116 99 110 107 87 80 74 68 54 72 77 102 132 129 126 132 145 120 117 128 108 120 133 146 155 146 115 85 89 85 82 138 145 137 116 90 70
139 130 131 127 109 124 142 148 118 88 83 84 83 62 77 75 94 143 144 144 158 135 127 119 94 93 99 97 105 110 131 145 109 110 89 96 118 143 152 145 127 100 73 56
145 131 125 100 134 158 159 145 131 146 128 115 123 116 121 136 135 125 134 133 130 122 103 102 100 82 84 97 107 108 113 112 97 87 90 100 107 123 130 104 91 84 74 60
125 178 193 232 202 176 163 154 140 134 122 126 119 119 143 143 145 137 134 127 120 106 98 90 89 88 89 95 103 103 103 99 94 85 74 67 70 78 73 66 67 72 67 58
259 234 178 178 175 176 161 143 132 118 123 145 110 106 157 163 152 148 137 119 109 102 96 87 86 91 92 87 93 93 91 86 89 77 52 43 46 41 47 56 63 62 58 74

GFSNGP_con_3kmhel_027.txt.gz
Helicity
79 58 55 53 36 30 9 29 116 33 36 22 33 66 132 91 86 92 139 126 173 388 520 562 578 558 548 548 595 575 522 406 263 243 235 300 309 330 267 193 126 103 120 122
84 70 50 71 64 54 38 32 23 28 42 31 -19 41 116 141 175 189 210 189 163 183 373 401 492 496 445 479 588 604 555 414 306 324 449 504 509 420 215 141 100 114 129 150
74 85 82 50 24 44 56 41 28 27 51 150 172 157 156 175 186 199 159 204 182 83 121 219 284 281 362 471 567 557 466 404 514 591 632 666 528 401 189 114 126 120 137 144
64 90 74 18 53 50 52 114 137 191 173 148 181 228 250 159 160 201 221 230 178 134 102 88 140 263 421 498 518 481 554 695 770 788 867 894 593 243 102 128 116 114 124 143
84 85 52 47 87 69 70 130 156 184 237 247 213 131 167 174 202 224 164 160 157 165 171 270 258 417 563 651 782 883 877 997 1020 1066 1078 577 280 103 91 82 78 116 138 159
110 85 33 37 69 96 109 135 142 155 149 137 124 110 24 122 171 189 237 262 325 427 547 630 687 836 1006 1053 1103 1103 1122 1134 1241 789 370 148 100 70 73 52 88 112 156 170
106 74 56 63 95 83 116 89 174 150 121 104 74 45 97 132 144 242 246 331 417 518 567 645 730 841 1005 1033 1076 961 1022 713 250 23 47 73 57 34 77 100 111 113 127 153
111 85 35 85 124 114 98 174 135 129 112 139 137 143 145 174 290 306 324 349 370 412 458 459 473 535 598 639 676 541 249 55 83 119 69 32 60 88 98 92 110 115 123 152
68 49 35 102 127 136 166 177 193 212 206 171 194 171 172 256 308 338 353 326 304 302 322 310 265 237 209 122 99 68 111 147 137 71 59 63 82 83 101 100 129 132 127 137
104 62 83 132 355 376 363 325 310 254 224 218 216 233 309 357 388 406 352 301 191 173 178 183 174 191 207 211 189 177 154 119 101 81 71 78 86 93 112 124 147 138 133 144
100 126 283 386 396 389 451 431 347 342 319 269 289 322 349 371 377 312 245 221 210 193 190 203 200 174 119 119 135 133 131 101 64 71 79 90 99 106 115 128 158 173 165 180
142 199 287 302 344 338 357 353 323 282 321 341 284 280 294 301 287 287 265 239 236 215 193 166 122 112 128 117 122 98 77 86 93 105 105 111 126 131 126 117 119 116 104 128
231 286 357 364 351 344 339 292 301 297 271 288 314 297 295 283 261 244 197 190 164 130 104 90 98 94 77 67 82 94 116 117 126 121 139 154 159 164 152 138 106 112 91 94
310 356 332 232 265 282 277 287 302 291 275 267 239 223 204 179 159 170 158 127 119 112 98 85 89 85 82 77 97 127 147 140 161 167 174 191 224 203 184 169 175 165 135 104
344 369 454 447 348 289 250 258 303 274 240 252 247 199 182 186 195 184 170 157 130 124 117 99 96 101 96 108 110 111 140 186 206 243 249 267 270 228 230 221 187 178 164 152
409 408 378 350 324 323 321 323 285 255 255 235 220 221 190 177 179 164 147 136 127 126 109 113 129 131 123 120 120 127 150 166 188 225 231 233 266 275 245 200 187 174 156 146
417 331 324 323 314 363 326 292 266 238 201 205 200 180 189 178 170 164 145 122 106 114 120 94 98 94 100 109 123 142 170 184 191 203 191 197 209 204 197 205 183 145 137 139
286 260 256 346 355 300 317 260 216 193 199 182 164 161 160 150 134 108 93 77 90 125 145 111 100 92 111 146 182 191 189 178 173 181 206 180 159 157 228 240 187 145 114 123
390 427 413 337 289 284 236 206 194 197 167 140 134 129 109 84 76 60 79 128 140 120 104 84 82 118 126 143 148 139 146 150 143 140 146 131 116 54 136 285 173 129 88 94
414 371 342 321 285 213 191 162 167 170 137 127 132 133 109 85 77 97 91 123 138 81 71 108 122 109 120 134 166 145 165 176 156 136 131 138 119 81 35 111 158 107 160 149
296 293 295 235 194 191 195 169 163 155 143 133 128 122 117 97 112 88 113 96 108 67 87 161 123 116 129 147 124 119 126 158 139 113 131 157 150 159 186 281 314 252 172 113
211 178 150 164 201 203 164 156 152 132 122 114 107 110 106 91 86 90 55 88 76 100 116 132 117 131 141 131 117 108 124 118 98 110 123 130 134 111 76 116 135 100 112 130
118 142 150 144 147 139 126 126 117 107 105 78 57 63 67 63 72 63 73 90 100 128 142 135 132 124 99 95 104 93 105 104 86 97 126 139 140 124 104 29 31 72 122 105
162 139 141 143 131 120 139 102 97 108 104 55 51 52 74 79 83 94 113 148 166 163 144 144 130 117 92 73 80 85 85 87 87 89 104 107 102 106 99 85 72 77 69 76
157 146 121 132 186 197 178 187 173 150 152 158 148 125 118 98 86 94 140 152 160 149 132 123 122 113 86 78 74 72 81 77 76 77 73 84 87 86 71 55 57 68 81 90
174 223 265 297 248 215 196 178 170 163 160 151 126 128 159 168 171 170 159 161 148 142 123 96 96 91 86 77 68 68 62 69 65 71 67 64 66 73 69 66 62 54 51 58
316 262 288 295 251 214 192 163 163 168 144 132 113 136 189 203 195 171 168 151 146 128 111 95 98 92 85 80 70 61 55 49 54 64 50 41 52 56 55 56 55 61 60 55

GFSNGP_con_3kmhel_030.txt.gz
Helicity
107 92 85 84 101 67 80 87 113 40 93 29 36 28 11 27 110 121 116 178 267 308 366 458 505 550 611 625 528 538 527 459 369 311 296 341 415 449 484 584 550 394 210 119
136 170 122 73 77 91 60 36 44 47 64 71 126 167 224 194 191 218 208 189 113 190 328 423 468 505 572 553 503 523 457 418 370 406 437 540 628 735 762 782 726 253 162 149
115 157 159 119 56 65 52 34 38 61 72 171 291 266 245 231 242 217 198 171 138 77 112 217 308 385 368 437 489 459 488 513 553 666 820 824 803 917 1062 528 178 149 141 99
112 154 137 36 96 83 164 173 163 217 229 164 164 197 233 205 208 208 182 202 225 177 73 83 166 254 391 504 561 605 686 718 823 911 1068 1097 1078 886 343 94 128 157 91 77
141 115 80 59 98 96 114 140 128 169 171 111 96 179 180 133 150 163 177 219 238 216 227 278 307 410 596 711 802 930 975 1046 985 890 844 829 624 154 120 183 159 79 92 107
164 118 59 20 99 90 126 148 140 151 160 157 122 145 80 151 132 205 252 222 224 252 300 400 445 588 783 835 1001 1120 1173 1196 1072 735 491 331 94 122 137 124 111 107 105 110
198 127 88 50 54 109 138 86 151 133 108 96 86 58 94 169 227 201 196 198 203 255 295 321 385 564 719 734 826 683 620 473 463 503 224 108 110 119 113 107 105 93 105 108
158 125 55 78 150 107 75 130 141 134 98 116 105 142 190 217 231 233 238 235 253 305 312 272 271 294 299 292 234 282 308 222 161 167 152 126 123 127 104 94 96 99 116 120
72 40 57 85 78 135 132 168 154 158 131 163 175 197 241 269 273 264 255 237 218 237 267 272 274 265 278 221 184 166 163 161 147 127 124 131 126 102 102 105 120 120 142 144
110 106 157 240 298 280 246 250 245 227 208 223 255 262 295 291 278 283 290 297 251 264 268 252 211 177 141 160 158 143 125 116 119 133 121 104 99 110 123 129 140 151 153 155
178 189 323 336 342 343 390 381 388 352 292 277 296 298 299 326 351 340 311 268 227 207 172 153 170 173 146 123 116 122 115 114 110 103 104 113 121 132 147 145 166 168 168 171
150 158 218 238 303 319 373 338 304 326 368 353 330 341 357 369 323 276 247 216 215 176 187 200 187 171 144 117 109 106 112 124 129 135 138 145 154 151 141 151 139 134 118 149
169 234 309 391 365 305 348 314 304 321 309 334 320 314 321 286 256 270 251 228 234 224 201 179 167 159 136 121 102 92 103 116 144 156 171 182 198 213 200 187 149 151 133 113
331 429 366 308 291 325 329 315 329 344 319 289 263 265 252 271 278 268 263 224 209 196 186 166 159 158 138 129 125 121 114 111 133 150 166 183 215 235 270 265 261 250 181 122
297 274 330 382 371 343 320 335 387 357 325 337 311 295 285 280 273 252 229 202 183 187 184 171 160 149 126 107 107 101 114 128 148 156 180 199 209 215 261 263 287 250 200 176
397 379 368 368 330 322 348 342 350 333 329 311 325 308 248 232 220 200 184 174 173 171 158 143 136 123 96 96 107 104 118 136 155 165 178 184 194 207 198 175 180 187 198 146
432 374 351 338 327 302 302 320 326 312 300 296 246 191 202 200 193 189 175 157 142 174 152 128 103 97 102 103 110 112 128 141 156 162 166 166 163 159 150 143 132 136 103 125
293 304 287 258 271 346 382 378 345 297 281 210 174 196 203 198 179 171 158 155 159 158 154 115 108 98 105 122 132 132 145 165 177 179 171 171 162 165 174 150 108 77 52 127
311 277 280 295 314 331 341 318 292 253 163 142 166 170 163 155 140 132 119 155 146 131 112 117 116 108 119 144 160 146 170 176 178 169 156 143 143 151 168 137 86 55 40 100
388 379 388 368 326 325 314 256 187 174 168 159 151 153 168 159 127 132 136 143 122 77 102 129 122 121 140 162 166 161 171 155 156 138 133 127 134 145 148 143 133 183 293 279
355 373 358 360 337 268 195 143 176 186 149 137 151 134 134 131 128 118 145 125 123 92 109 137 122 112 132 143 155 150 154 136 128 117 113 115 116 132 133 120 100 77 87 125
288 294 286 238 204 175 162 154 157 152 142 142 141 147 154 144 118 115 88 99 85 99 102 121 130 142 138 133 145 139 138 126 111 102 118 125 125 118 112 98 96 71 2 -6
202 166 173 183 174 168 166 155 133 124 130 120 115 118 122 108 102 101 95 98 94 131 140 143 145 152 154 144 132 129 122 101 105 99 113 115 114 105 96 83 75 72 75 59
164 157 151 158 171 173 164 136 141 123 129 118 105 75 89 100 108 100 96 123 155 169 155 155 167 166 165 142 130 115 103 98 99 103 101 92 87 76 79 76 77 80 78 63
151 170 182 181 180 181 164 184 197 174 170 166 148 127 126 123 113 100 159 163 179 170 163 169 180 179 152 127 118 104 101 93 86 91 86 64 65 64 69 68 69 71 68 59
220 261 276 287 271 254 244 226 215 182 155 149 139 163 183 177 182 201 203 185 169 172 175 157 152 153 140 116 121 104 97 86 83 83 75 54 56 61 65 66 65 67 65 57
350 371 389 394 342 287 269 255 216 184 145 134 147 152 171 198 216 203 188 181 163 163 165 143 133 132 130 128 123 106 93 80 74 81 70 63 69 72 72 66 62 60 59 54